This is the latest recevied weather packets stored in our database for station/object SP3OTE-2. If no packets are shown the sender has not sent any weather packets the latest 10 day(s).
| Time | Temp. | Humidity | Pressure | Rain* | Wind** | Luminosity | Snow |
|---|---|---|---|---|---|---|---|
| 1777839350 | 18.89° C | 41% | 1014.3 hPa | - | - | - | - |
| 1777838750 | 18.89° C | 41% | 1014.3 hPa | - | - | - | - |
| 1777838150 | 19.44° C | 40% | 1014.3 hPa | - | - | - | - |
| 1777837550 | 19.44° C | 40% | 1014.3 hPa | - | - | - | - |
| 1777836949 | 20° C | 40% | 1014.4 hPa | - | - | - | - |
| 1777836349 | 20° C | 39% | 1014.2 hPa | - | - | - | - |
| 1777835749 | 20.56° C | 39% | 1014.3 hPa | - | - | - | - |
| 1777835149 | 21.11° C | 38% | 1014.2 hPa | - | - | - | - |
| 1777834549 | 21.11° C | 37% | 1014 hPa | - | - | - | - |
| 1777833948 | 21.67° C | 37% | 1014 hPa | - | - | - | - |
| 1777833348 | 22.22° C | 36% | 1013.9 hPa | - | - | - | - |
| 1777832748 | 22.78° C | 35% | 1013.7 hPa | - | - | - | - |
| 1777832147 | 23.33° C | 34% | 1013.7 hPa | - | - | - | - |
| 1777831547 | 24.44° C | 33% | 1013.6 hPa | - | - | - | - |
| 1777830947 | 25° C | 33% | 1013.5 hPa | - | - | - | - |
| 1777830347 | 25.56° C | 32% | 1013.4 hPa | - | - | - | - |
| 1777829746 | 27.22° C | 29% | 1013.4 hPa | - | - | - | - |
| 1777829146 | 30.56° C | 27% | 1013.4 hPa | - | - | - | - |
| 1777828546 | 31.67° C | 26% | 1013.3 hPa | - | - | - | - |
| 1777827946 | 32.78° C | 25% | 1013.3 hPa | - | - | - | - |
| 1777827345 | 33.33° C | 25% | 1013.2 hPa | - | - | - | - |
| 1777826745 | 33.89° C | 24% | 1013.2 hPa | - | - | - | - |
| 1777826145 | 33.33° C | 24% | 1013.2 hPa | - | - | - | - |
| 1777825545 | 33.89° C | 24% | 1013.2 hPa | - | - | - | - |
| 1777824944 | 35° C | 24% | 1013.3 hPa | - | - | - | - |
* Rain since midnight (hover to see other rain measurements)
** Current wind speed in m/s (hover to see current wind gust speed)